EW5862 Weather Reports


Display with metric or nautical units.
time (UTC)temp
F
wind
direction
speed
MPH
gust
MPH
rain 1hr
in
rain 24hr
in
rain mn
in
humidity
%
barometer
mb
20260504034517 58 338 1.0 3.0 0.00 0.02 0.00 83 1011.8
20260504033517 58 338 1.0 4.0 0.00 0.02 0.00 83 1011.9
20260504032517 58 0.0 0.0 0.00 0.02 0.00 83 1011.9
20260504031517 58 0.0 0.0 0.00 0.02 0.00 83 1012.1
20260504030517 58 338 1.0 3.0 0.00 0.02 0.00 83 1012.2
20260504025517 58 338 2.0 3.0 0.00 0.02 0.00 83 1012.1
20260504024517 58 338 3.0 4.0 0.00 0.02 0.00 84 1012.4
20260504023517 58 338 3.0 5.0 0.00 0.02 0.00 84 1012.4
20260504022537 58 338 3.0 5.0 0.00 0.02 0.00 84 1012.3
20260504021517 58 0.0 0.0 0.00 0.02 0.00 84 1012.4
20260504020517 58 0.0 0.0 0.00 0.02 0.00 83 1012.4
20260504015517 58 0.0 0.0 0.00 0.02 0.00 83 1012.4
20260504014517 58 0.0 0.0 0.00 0.02 0.00 84 1012.4
20260504013517 58 0.0 0.0 0.00 0.02 0.00 84 1012.4
20260504012517 58 338 1.0 4.0 0.00 0.02 0.00 84 1012.5
20260504011517 58 338 1.0 5.0 0.00 0.02 0.00 84 1012.3
20260504010537 59 338 2.0 5.0 0.00 0.02 0.00 84 1012.4
20260504005517 59 0.0 0.0 0.00 0.02 0.00 83 1012.4
20260504004517 59 0.0 0.0 0.00 0.02 0.00 83 1012.4
20260504003516 59 0.0 0.0 0.00 0.02 0.00 83 1012.4
20260504002516 59 0.0 0.0 0.00 0.02 0.00 83 1012.5
20260504001516 59 0.0 0.0 0.00 0.02 0.00 83 1012.5
20260504000517 59 0.0 0.0 0.00 0.02 0.00 83 1012.5
20260503235536 59 0.0 0.0 0.00 0.02 0.00 83 1012.5
20260503234517 59 0.0 0.0 0.00 0.02 0.00 83 1012.4
20260503233516 59 338 2.0 4.0 0.00 0.02 0.00 83 1012.4
20260503232536 59 0.0 0.0 0.00 0.02 0.00 83 1012.5
20260503231516 59 0.0 0.0 0.00 0.02 0.00 84 1012.5
20260503230516 59 0.0 0.0 0.00 0.02 0.00 83 1012.5
20260503225517 59 0.0 0.0 0.00 0.02 0.00 84 1012.6
20260503224557 59 0.0 0.0 0.00 0.02 0.00 84 1012.5
20260503223516 59 0.0 0.0 0.00 0.02 0.00 84 1012.5
20260503222516 59 338 3.0 5.0 0.00 0.02 0.00 84 1012.5
20260503221537 59 338 2.0 5.0 0.00 0.02 0.00 84 1012.7
20260503220516 59 338 3.0 9.0 0.00 0.02 0.00 84 1012.7
20260503215516 59 338 5.0 11.0 0.00 0.02 0.02 84 1012.6
20260503214517 59 338 4.0 9.0 0.00 0.02 0.02 84 1012.7
20260503213516 59 338 3.0 8.0 0.00 0.02 0.02 84 1012.8
20260503212517 59 338 4.0 10.0 0.00 0.02 0.02 84 1012.8
20260503211517 59 338 3.0 7.0 0.00 0.02 0.02 84 1012.8
20260503210516 59 338 3.0 7.0 0.00 0.02 0.02 84 1012.8
20260503205537 59 338 5.0 9.0 0.00 0.02 0.02 84 1012.5
20260503204516 59 338 2.0 5.0 0.00 0.02 0.02 84 1012.5
20260503203516 59 338 1.0 3.0 0.00 0.02 0.02 84 1012.4
20260503202517 59 0.0 1.0 0.00 0.02 0.02 84 1012.5
20260503201516 59 0.0 2.0 0.00 0.02 0.02 84 1012.4
20260503200516 59 338 2.0 4.0 0.00 0.02 0.02 84 1012.2
20260503195516 59 338 3.0 5.0 0.00 0.02 0.02 84 1012.0
20260503194516 59 338 3.0 4.0 0.00 0.02 0.02 84 1011.7
20260503193516 59 315 1.0 3.0 0.00 0.02 0.02 84 1011.5
20260503192516 59 315 2.0 4.0 0.00 0.02 0.02 84 1011.2
20260503191516 60 338 1.0 2.0 0.00 0.02 0.02 83 1011.1
20260503190536 60 315 2.0 3.0 0.00 0.02 0.02 82 1011.0
20260503185516 61 338 2.0 4.0 0.00 0.02 0.02 82 1011.0
20260503184516 61 338 1.0 4.0 0.00 0.02 0.02 81 1010.7
20260503183536 62 338 1.0 3.0 0.00 0.02 0.02 81 1010.7
20260503182516 62 338 3.0 5.0 0.00 0.02 0.02 80 1010.7
20260503181516 62 338 3.0 7.0 0.00 0.02 0.02 79 1011.1
20260503180516 62 338 1.0 2.0 0.00 0.02 0.02 79 1010.8
20260503175516 62 338 2.0 5.0 0.00 0.02 0.02 80 1010.8
20260503174536 62 338 6.0 10.0 0.00 0.02 0.02 81 1010.6
20260503173516 61 315 3.0 5.0 0.00 0.02 0.02 81 1010.6
20260503172536 61 338 1.0 4.0 0.00 0.02 0.02 81 1010.7
20260503171516 62 315 5.0 10.0 0.00 0.02 0.02 79 1010.9
20260503170516 64 315 10.0 19.0 0.00 0.02 0.02 72 1011.2
20260503150516 73 338 7.0 17.0 0.00 0.02 0.02 60 1011.7
20260503130516 70 338 4.0 12.0 0.00 0.02 0.02 66 1013.0
20260503110515 59 0.0 0.0 0.00 0.02 0.02 81 1013.7
20260503081517 58 338 4.0 9.0 0.01 0.01 0.01 82 1014.2
20260503080517 58 338 3.0 7.0 0.01 0.01 0.01 82 1014.2
20260503072517 58 338 1.0 5.0 0.00 0.00 0.00 83 1014.0
20260503071537 58 338 3.0 7.0 0.00 0.00 0.00 84 1014.2
20260503070517 58 338 2.0 8.0 0.00 0.00 0.00 84 1014.1
20260503054517 56 0.0 1.0 0.00 0.00 0.00 84 1013.8
20260503053517 56 0.0 0.0 0.00 0.00 0.00 84 1013.5
20260503052517 56 338 1.0 4.0 0.00 0.00 0.00 84 1013.3
20260503051517 56 0.0 0.0 0.00 0.00 0.00 84 1013.2
20260503050517 56 0.0 0.0 0.00 0.00 0.00 85 1013.2
20260503045517 56 0.0 0.0 0.00 0.00 0.00 84 1013.2
20260503044517 56 338 1.0 4.0 0.00 0.00 0.00 85 1013.0
20260503043517 57 338 4.0 7.0 0.00 0.00 0.00 85 1012.8
20260503042517 57 338 5.0 9.0 0.00 0.00 0.00 85 1013.0
20260503041537 57 338 6.0 10.0 0.00 0.00 0.00 85 1013.0
20260503040517 57 338 4.0 8.0 0.00 0.00 0.00 84 1013.1
20260503035537 57 315 4.0 7.0 0.00 0.00 0.00 84 1013.4